�搅�E���B���j�^�v������
Date,Time,�搅(cps),���B(cps),���J
2024/04/23,00:00,7.0,5.0,�L
2024/04/23,00:10,7.0,4.9,�L
2024/04/23,00:20,6.7,4.9,�L
2024/04/23,00:30,6.5,4.7,�L
2024/04/23,00:40,6.3,4.7,�L
2024/04/23,00:50,6.1,4.6,�L
2024/04/23,01:00,6.1,4.6,��
2024/04/23,01:10,5.9,4.7,��
2024/04/23,01:20,6.0,4.6,��
2024/04/23,01:30,6.0,4.5,�L
2024/04/23,01:40,5.9,4.5,�L
2024/04/23,01:50,5.8,4.5,�L
2024/04/23,02:00,5.9,4.5,�L
2024/04/23,02:10,5.9,4.4,�L
2024/04/23,02:20,5.8,4.3,�L
2024/04/23,02:30,5.8,4.1,�L
2024/04/23,02:40,5.9,4.3,�L
2024/04/23,02:50,5.8,4.4,�L
2024/04/23,03:00,5.9,4.3,��
2024/04/23,03:10,5.9,4.5,��
2024/04/23,03:20,5.9,4.5,��
2024/04/23,03:30,5.9,4.4,��
2024/04/23,03:40,5.9,4.3,��
2024/04/23,03:50,5.8,4.3,��
2024/04/23,04:00,5.9,4.3,��
2024/04/23,04:10,5.9,4.5,��
2024/04/23,04:20,5.8,4.4,��
2024/04/23,04:30,5.9,4.6,��
2024/04/23,04:40,5.8,4.5,��
2024/04/23,04:50,5.9,4.4,��
2024/04/23,05:00,5.7,4.2,��
2024/04/23,05:10,5.8,4.3,��
2024/04/23,05:20,5.7,4.3,��
2024/04/23,05:30,5.9,4.4,��
2024/04/23,05:40,5.8,4.4,��
2024/04/23,05:50,5.8,4.4,��
2024/04/23,06:00,5.8,4.4,��
2024/04/23,06:10,5.9,4.4,��
2024/04/23,06:20,5.8,4.3,��
2024/04/23,06:30,6.0,4.5,��
2024/04/23,06:40,5.9,4.4,��
2024/04/23,06:50,5.9,4.4,��
2024/04/23,07:00,6.0,4.3,��
2024/04/23,07:10,6.0,4.3,��
2024/04/23,07:20,5.9,4.4,�L
2024/04/23,07:30,5.8,4.4,�L
2024/04/23,07:40,6.0,4.4,�L
2024/04/23,07:50,6.0,4.4,�L
2024/04/23,08:00,5.8,4.2,�L
2024/04/23,08:10,6.0,4.4,�L
2024/04/23,08:20,6.1,4.4,��
2024/04/23,08:30,6.0,4.4,��
2024/04/23,08:40,6.1,4.4,��
2024/04/23,08:50,6.1,4.5,��
2024/04/23,09:00,6.1,4.4,��
2024/04/23,09:10,6.2,4.5,��
2024/04/23,09:20,6.4,4.5,��
2024/04/23,09:30,6.1,4.6,��
2024/04/23,09:40,6.2,4.4,��
2024/04/23,09:50,6.3,4.6,��
2024/04/23,10:00,6.3,4.5,��
2024/04/23,10:10,6.4,4.5,��
2024/04/23,10:20,6.2,4.5,��
2024/04/23,10:30,6.4,4.5,��
2024/04/23,10:40,6.4,4.6,��
2024/04/23,10:50,6.4,4.5,��
2024/04/23,11:00,6.4,4.5,��
2024/04/23,11:10,6.3,4.5,��
2024/04/23,11:20,6.2,4.5,��
2024/04/23,11:30,6.2,4.5,��
2024/04/23,11:40,6.3,4.6,��
2024/04/23,11:50,6.3,4.5,��
2024/04/23,12:00,6.3,4.5,��
2024/04/23,12:10,6.3,4.5,��
2024/04/23,12:20,6.1,4.4,��
2024/04/23,12:30,6.3,4.5,��
2024/04/23,12:40,6.4,4.5,��
2024/04/23,12:50,6.0,4.4,��
2024/04/23,13:00,6.2,4.4,��
2024/04/23,13:10,6.0,4.4,��
2024/04/23,13:20,6.0,4.5,��
2024/04/23,13:30,6.0,4.3,��
2024/04/23,13:40,6.1,4.3,��
2024/04/23,13:50,6.0,4.4,��
2024/04/23,14:00,6.0,4.5,�L
2024/04/23,14:10,6.0,4.5,�L
2024/04/23,14:20,6.2,4.4,�L
2024/04/23,14:30,5.9,4.4,�L
2024/04/23,14:40,5.9,4.3,�L
2024/04/23,14:50,6.0,4.4,�L
2024/04/23,15:00,6.0,4.3,�L
2024/04/23,15:10,6.1,4.4,�L
2024/04/23,15:20,6.1,4.4,�L
2024/04/23,15:30,6.1,4.4,�L
2024/04/23,15:40,6.2,4.4,�L
2024/04/23,15:50,6.2,4.5,�L
2024/04/23,16:00,6.2,4.5,�L
2024/04/23,16:10,6.1,4.6,�L
2024/04/23,16:20,6.0,4.5,�L
2024/04/23,16:30,6.1,4.6,�L
2024/04/23,16:40,6.0,4.4,�L
2024/04/23,16:50,6.2,4.5,�L
2024/04/23,17:00,6.2,4.5,�L
2024/04/23,17:10,6.0,4.5,�L
2024/04/23,17:20,6.0,4.4,�L
2024/04/23,17:30,6.0,4.4,�L
2024/04/23,17:40,6.1,4.5,�L
2024/04/23,17:50,6.1,4.5,�L
2024/04/23,18:00,6.2,4.3,�L
2024/04/23,18:10,6.1,4.5,�L
2024/04/23,18:20,6.0,4.5,�L
2024/04/23,18:30,6.0,4.5,�L
2024/04/23,18:40,6.0,4.5,�L
2024/04/23,18:50,6.3,4.4,�L
2024/04/23,19:00,6.3,4.5,�L
2024/04/23,19:10,6.3,4.6,�L
2024/04/23,19:20,6.1,4.6,�L
2024/04/23,19:30,6.2,4.5,�L
2024/04/23,19:40,6.3,4.6,�L
2024/04/23,19:50,6.3,4.6,��
2024/04/23,20:00,6.2,4.5,��
2024/04/23,20:10,6.2,4.5,��
2024/04/23,20:20,6.2,4.5,��
2024/04/23,20:30,6.1,4.5,��
2024/04/23,20:40,6.1,4.4,��
2024/04/23,20:50,6.0,4.4,��
2024/04/23,21:00,6.1,4.4,��
2024/04/23,21:10,5.9,4.3,��
2024/04/23,21:20,5.8,4.5,��
2024/04/23,21:30,6.0,4.5,��
2024/04/23,21:40,6.0,4.5,��
2024/04/23,21:50,6.1,4.4,�L
2024/04/23,22:00,6.0,4.4,�L
2024/04/23,22:10,6.1,4.3,�L
2024/04/23,22:20,6.1,4.5,�L
2024/04/23,22:30,6.2,4.5,�L
2024/04/23,22:40,6.0,4.5,�L
2024/04/23,22:50,6.0,4.5,�L
2024/04/23,23:00,6.0,4.5,��
2024/04/23,23:10,5.9,4.3,�L
2024/04/23,23:20,6.1,4.3,�L
2024/04/23,23:30,6.1,4.4,�L
2024/04/23,23:40,6.0,4.3,�L
2024/04/23,23:50,6.0,4.5,�L
